Regional Weather Roundup
Issued by NWS New Orleans/Baton Rouge, LA

Home | Current Version | Previous Version | Graphics & Text | Print | Product List | Glossary On
Versions: 1 2 3 4 5 6 7 8 9 10 11 12 13 14 15 16 17 18 19 20 21 22 23 24 25 26 27 28 29 30 31 32 33 34 35 36 37 38 39 40 41 42 43 44 45 46 47 48 49 50
796
ASUS44 KLIX 250210
RWRLIX
NEW ORLEANS REGIONAL WEATHER ROUNDUP
NATIONAL WEATHER SERVICE NEW ORLEANS LA
900 PM CDT FRI OCT 24 2014

NOTE: "FAIR" INDICATES FEW OR NO CLOUDS BELOW 12,000 FEET WITH NO
      SIGNIFICANT WEATHER AND/OR OBSTRUCTIONS TO VISIBILITY.
      SKY/WX - SKY CONDITION AND SIGNIFICANT WEATHER.
      TMP - AIR TEMPERATURE.     DP    - DEWPOINT TEMPERATURE.
      RH  - RELATIVE HUMIDITY.   PRES  - PRESSURE.
      HI  - HEAT INDEX.          WCI   - WIND CHILL INDEX.

*  THESE STATIONS ARE NOT NWS OR FAA STATIONS AND ARE NOT UNDER
   NWS QUALITY CONTROL.

LAZ038-040-048-061>063-065>067-069-250300-
SOUTHEAST LOUISIANA

CITY           SKY/WX    TMP DP  RH WIND       PRES   REMARKS
N.O. AUDUBON     N/A     67  52  59 MISG        N/A
N.O. INTL ARPT CLEAR     68  50  52 N6        30.09R
N.O. LAKEFRONT CLEAR     71  52  50 N12       30.09R
N.O. DOWNTOWN*   N/A     72  48  43 N5        30.09R
SLIDELL        CLEAR     55  51  86 N3        30.08R
BATON ROUGE    CLEAR     57  51  80 CALM      30.11R
BOOTHVILLE     CLEAR     67  56  67 NW5       30.08R
BELLE CHASSE   PTCLDY    55  50  83 CALM      30.09R
BOGALUSA*        N/A     56  48  75 CALM      30.10S
NEW ROADS*       N/A     56  51  82 CALM      30.11R
GONZALES*        N/A     56  56 100 CALM      30.10R
HAMMOND*       CLEAR     55  50  82 CALM      30.11S
HOUMA*         CLEAR     55  51  86 CALM      30.10R
PORT FOURCHON* CLEAR     68  54  60 N7        30.13R

$$

MSZ070-080>082-250300-
SOUTHERN MISSISSIPPI

CITY           SKY/WX    TMP DP  RH WIND       PRES   REMARKS
MCCOMB         CLEAR     58  47  66 N5        30.10S
GULFPORT       CLEAR     60  50  69 NW3       30.07R
BILOXI         CLEAR     65  50  58 NW5       30.07R
PASCAGOULA     CLEAR     52  48  86 CALM      30.07R
STENNIS ARPT*  CLEAR     54  48  82 CALM      30.09R

$$

COASTAL OBSERVATIONS
LAKE AND NEARSHORE STATIONS

STATION/POSITION TIME  TEMP    WIND        PRES    WAVE
                       AIR SEA DIR/SP/G            HT/PER
                 (UTC) (F)     (DEG/KT/KT) (MB)    (FT/S)
PASCAGOULA       0200   64     340/  6/  7 1017.6
WAVELAND YACHT   0200   69     350/  8/  9 1017.8
GRAND ISLE       0200   71 73  350/  8/ 10 1019.3
SOUTHWEST PASS   0200   71 80              1018.9
NEW CANAL        0200   73 71   10/ 10/ 11 1019.1
SHELL BEACH      0200   72 68  360/ 13/ 15 1018.4

OFFSHORE STATIONS

STATION/POSITION TIME  TEMP    WIND        PRES    WAVE
                       AIR SEA DIR/SP/G            HT/PER
                 (UTC) (F)     (DEG/KT/KT) (MB)    (FT/S)
64 S DAUPHIN ISL 0127   72 78  340/ 14/ 17 1018.3    2/ 7

$$




USA.gov is the U.S. government's official web portal to all federal, state and local government web resources and services.